"Pseudo-MPEC" for gb00777

Created 2024 Nov 13 20:31:10 UT using Find_Orb

Click here for an explanation of pseudo-MPECs

 
 Astrometry: 
     gb00777 KC2024 10 28.10032 10 35 46.14 +65 21 10.7    ~B9AV 20.5 GVNEOCPK88
     gb00777 KC2024 10 28.11001 10 35 47.11 +65 21 08.7    ~B9AV 20.3 GVNEOCPK88
     gb00777 KC2024 10 28.11971 10 35 48.28 +65 21 06.8    ~B9AV 20.1 GVNEOCPK88
     gb00777*KC2024 11 08.04936 10 54 44.76 +64 41 21.1    ~B82V 19.3 GXNEOCPL51
     gb00777 KC2024 11 08.05997 10 54 45.66 +64 41 18.9    ~B82V 19.8 GXNEOCPL51
     gb00777 KC2024 11 08.07064 10 54 46.68 +64 41 16.9    ~B82V 19.8 GXNEOCPL51
     gb00777 KC2024 11 08.12198 10 54 51.30 +64 41 08.4    ~B83l 19.0 GXNEOCPL51
     gb00777 KC2024 11 08.12861 10 54 51.91 +64 41 07.3    ~B83l 19.5 GXNEOCPL51
     gb00777 KB2024 11 08.13429 10 54 52.47 +64 41 06.4    ~B8G2 19.7 GXNEOCPM45
     gb00777 KC2024 11 08.13527 10 54 52.47 +64 41 06.3    ~B83l 19.7 GXNEOCPL51
     gb00777 KB2024 11 08.13670 10 54 52.68 +64 41 05.6    ~B8G2 19.8 GXNEOCPM45
     gb00777 !C2024 11 08.46748 10 55 22.92 +64 40 06.1    ~B8BV 20.3 GVNEOCP673
     gb00777 !C2024 11 08.47208 10 55 23.27 +64 40 05.0    ~B8BV       VNEOCP673
     gb00777 0C2024 11 08.52692 10 55 28.26 +64 39 56.0    ~BA1H       VNEOCPU94
     gb00777 0C2024 11 08.53200 10 55 28.65 +64 39 54.9    ~BA1H 20.2 GVNEOCPU94
     gb00777 KC2024 11 08.97849 10 56 09.12 +64 38 33.4    ~B90V 19.7 VqNEOCPL04
     gb00777 KC2024 11 08.98870 10 56 10.00 +64 38 32.1    ~B90V 19.8 VqNEOCPL04
     gb00777 KC2024 11 09.01406 10 56 12.21 +64 38 28.1    ~B91H 19.8 GXNEOCPL51
     gb00777 KC2024 11 09.01833 10 56 12.50 +64 38 27.5    ~B91H 19.6 GXNEOCPL51
     gb00777 KC2024 11 09.02261 10 56 12.95 +64 38 26.8    ~B91H 19.8 GXNEOCPL51
     gb00777 KC2024 11 09.12685 10 56 22.15 +64 38 09.6    ~B942 19.7 GXNEOCPL51
     gb00777 KC2024 11 09.13278 10 56 22.71 +64 38 08.5    ~B942 19.7 GXNEOCPL51
     gb00777 KC2024 11 09.13771 10 56 23.20 +64 38 07.5    ~B942 20.2 GXNEOCPL51
     gb00777 KC2024 11 10.02376810 57 41.36 +64 35 34.9    ~BA1H 20.0 GVNEOCPL01
     gb00777 KC2024 11 10.02629810 57 41.60 +64 35 34.3    ~BA1H 20.3 GVNEOCPL01
     gb00777 KC2024 11 10.02882910 57 41.89 +64 35 33.8    ~BA1H 20.3 GVNEOCPL01
     gb00777 KC2024 11 10.03262210 57 42.19 +64 35 33.3    ~BA1H 20.2 GVNEOCPL01
     gb00777 KC2024 11 10.04472510 57 43.30 +64 35 31.4    ~BAA2       VNEOCP104
     gb00777 KC2024 11 10.07370910 57 45.80 +64 35 26.8    ~BA2l 20.1 GVNEOCPK62
     gb00777 KC2024 11 10.08099210 57 46.36 +64 35 26.0    ~BA2l 20.0 GVNEOCPK62
     gb00777 KC2024 11 10.08826710 57 47.05 +64 35 23.8    ~BA2l 19.3 GVNEOCPK62
     gb00777 KC2024 11 10.09575810 57 47.58 +64 35 23.5    ~BA2l 19.6 GVNEOCPK62
     gb00777 :C2024 11 10.17284 10 57 54.36 +64 35 11.2    ~BA8V 19.9 VqNEOCP950
     gb00777 :C2024 11 10.22424 10 57 58.84 +64 35 03.4    ~BA8V 19.7 VqNEOCP950
     gb00777 KC2024 11 10.47215 10 58 20.242+64 34 22.37   ~BAHl 19.8 GVNEOCPV21
     gb00777 KC2024 11 10.49571 10 58 22.260+64 34 19.74   ~BAHl 19.4 GVNEOCPV21
     gb00777 KC2024 11 10.51759 10 58 24.166+64 34 15.78   ~BAHl 19.5 GVNEOCPV21
     gb00777 KC2024 11 11.00430410 59 05.85 +64 32 52.8    ~BB0l 21.0 GVNEOCPL01
     gb00777 KC2024 11 11.00683010 59 06.11 +64 32 53.9    ~BB0l 21.0 GVNEOCPL01
     gb00777 KC2024 11 11.09036910 59 13.14 +64 32 41.2    ~BB5l 19.7 GUNEOCPL06
     gb00777 KC2024 11 11.12184110 59 15.77 +64 32 36.8    ~BB5l 19.9 GUNEOCPL06
     gb00777 KB2024 11 11.14169 10 59 17.39 +64 32 33.4    ~BCMl       VNEOCP204
     gb00777 KB2024 11 11.15284 10 59 18.34 +64 32 31.7    ~BCMl 20.1 GVNEOCP204
     gb00777 KC2024 11 11.15331310 59 18.33 +64 32 32.2    ~BB5l 20.0 GUNEOCPL06
     gb00777 KB2024 11 11.16398 10 59 19.25 +64 32 30.2    ~BCMl       VNEOCP204

Station data:
(104) San Marcello Pistoiese  (N44.064178 E10.803750)  Italy.  Observers P.
   Bacci, M. Maestripieri. Measurers P. Bacci, L. Tesi, G. Fagioli. 0.60-m
   reflector + CCD.
(204) Schiaparelli Observatory  (N45.868292 E8.769720)  Italy.  Observer L.
   Buzzi. 0.60-m f/4.64 Newtonian + CCD0.84-m f/3.5 reflector + CCD.
(673) Table Mountain Observatory, Wrightwood  (N34.381485 W117.682170)
   US/California.  Observers J. Chesley, J. Pittichova. Measurer W. M. Owen
   Jr. 0.61-m f/16 reflector + CCD.
(950) La Palma  (N28.760220 W17.882400)  Canary Islands (Spain).  Observers
   O. Vaduvescu, R. Ashley, P. Massana, C. Celma, M. Monelli, M. Rodriguez,
   M. Rodriguez-Alarcon. Measurers C. Boldea, O. Vaduvescu. 2.5-m f/3.3
   reflector + CCD.
(K62) Teplice Observatory  (N50.638318 E13.846750)  Czech Republic.  Observer
   Z. Moravec. 0.43-m f/4.5 reflector + CCD.
(K88) GINOP-KHK, Piszkéstető  (N47.917453 E19.893670)  Hungary.  Observer K.
   Sárneczky. 0.60-m Schmidt + CCD.
(L01) Višnjan Observatory, Tičan  (N45.290897 E13.749300)  Croatia.
   Observers K. Korlević, D. Pujagic, V. Dobos. Measurers D. Pujagic, K.
   Korlević. 1.0-m f/2.9 reflector + CCD.
(L04) ROASTERR-1 Observatory, Cluj-Napoca  (N46.820952 E23.596400)  Romania.
   Observer L. Hudin. 0.3-m f/5 reflector + CCD0.1-m f/9 refractor + CCD.
(L06) Sormano 2 Observatory, Bellagio Via Lattea  (N45.970100 E9.254030)
   Italy.  Observer G. Ventre. Measurers G. Ventre, P. Sicoli. 0.28-m f/10
   reflector + CCD.
(L51) MARGO, Nauchnij  (N44.729397 E34.016400)  Ukraine.  Observer G. Borisov.
    0.4-m f/2.3 astrograph + CCD.
(M45) Starhopper Observatory, Sfantu Gheorghe  (N45.865494 E25.768890)
   Romania.  Observer F. Ursache. 0.41-m f/7.5 reflector + CMO.
(U94) iTelescope Observatory, Beryl Junction  (N37.737780 W113.697500)
   US/Utah.  Observer H. Sato. 0.51-m f/4.5 Corrected Dall-Kirkham +
   CCD0.51-m f/6.8 astrograph + f/4.5 focal reducer + CCD.
(V21) Cewanee Observatory at DSNM  (N31.946619 W108.897690)  US/New Mexico.
   Observer D. T. Durig. 0.4-m f/8 Ritchey-Chrétien + 4656x3520 CCD.

Orbital elements:  gb00777
   Perihelion 2025 Apr 4.20609 +/- 0.565 TT =  4:56:46 (JD 2460769.70609)
Epoch 2024 Nov 11.0 TT = JDT 2460625.5                           AutoNEOCP
M 359.96154775 +/- 0.012            (J2000 ecliptic)
n   0.00026664 +/- 8.61e-5          Peri.  168.75946 +/- 0.54
a 239.062057 +/- 52.8               Node   328.16748 +/- 0.18
e   0.9903107 +/- 0.00207           Incl.   54.62985 +/- 0.043
P3696.28950                H 14.82  G  0.15   U  6.5
q 2.31632063 +/- 0.0126    Q 475.807794 +/- 103
From 45 observations 2024 Oct. 28-Nov. 11; mean residual 0".34
Residuals in arcseconds: 
241028 K88  .48+  .36-    241108 L04  .64+  .19-    241110 K62  .25+  .87-    
241028 K88  .42-  .04-    241108 L04  .39+  .16+    241110 K62  .50-  .00     
241028 K88  .07-  .40+    241109 L51  .04-  .17-    241110 950  .83-  .01-    
241108 L51  .19+  .22+    241109 L51  .62-  .08-    241110 950  .24-  .03-    
241108 L51  .21-  .18-    241109 L51  .17-  .09-    241110 V21  .38-  .04+    
241108 L51  .14+  .36-    241109 L51  .04-  .24-    241110 V21  .17-  .98+    
241108 L51  .11+  .06-    241109 L51  .23+  .36-    241110 V21  .28+  .36+    
241108 L51  .21+  .01-    241109 L51  .62+  .54-    241111 L01  .24+  1.1-    
241108 M45  .29+  .32+    241110 L01  .58-  .15+    241111 L01  .52+  .37+    
241108 L51  .03-  .15+    241110 L01  .46-  .06-    241111 L06  .30+  .07+    
241108 M45  .25+  .06-    241110 L01  .02-  .17-    241111 L06  .26+  .29+    
241108 673  .25-  .36+    241110 L01  .21-  .09-    241111 204  .03+  .17-    
241108 673  .65-  .01+    241110 104  .09+  .04-    241111 204  .18+  .21-    
241108 U94  .23+  .15+    241110 K62  .30+  .13-    241111 L06  .12-  .35+    
241108 U94  .16-  .10-    241110 K62  .15-  .20+    241111 204  .09+  .06-    

Ephemerides (geocentric):
Date (UTC) HH   RA             Dec           delta  r     elong  mag " sig PA
---- --------  ------------   ------------  ------ ------ -----  --- --------
2024 11 13 21  11 02 59.300   +64 25 47.60  2.5175 2.7938  95.6 20.1 .412   8
2024 11 13 22  11 03 02.549   +64 25 41.86  2.5169 2.7936  95.7 20.1 .418   8
2024 11 13 23  11 03 05.793   +64 25 36.15  2.5163 2.7933  95.7 20.1 .423   8
2024 11 14 00  11 03 09.033   +64 25 30.44  2.5157 2.7931  95.7 20.1 .429   8
2024 11 14 01  11 03 12.268   +64 25 24.75  2.5151 2.7928  95.7 20.1 .435   8
2024 11 14 02  11 03 15.500   +64 25 19.08  2.5145 2.7926  95.7 20.1 .440   8
2024 11 14 03  11 03 18.727   +64 25 13.42  2.5139 2.7923  95.8 20.1 .446   8
2024 11 14 04  11 03 21.950   +64 25 07.77  2.5134 2.7921  95.8 20.1 .452   8
2024 11 14 05  11 03 25.168   +64 25 02.14  2.5128 2.7918  95.8 20.1 .458   7
2024 11 14 06  11 03 28.383   +64 24 56.52  2.5122 2.7916  95.8 20.1 .463   7
2024 11 14 07  11 03 31.593   +64 24 50.91  2.5116 2.7913  95.8 20.1 .469   7
2024 11 14 08  11 03 34.799   +64 24 45.32  2.5110 2.7911  95.9 20.1 .475   7
2024 11 14 09  11 03 38.000   +64 24 39.74  2.5104 2.7908  95.9 20.1 .481   7
2024 11 14 10  11 03 41.198   +64 24 34.18  2.5098 2.7906  95.9 20.1 .487   7
2024 11 14 11  11 03 44.391   +64 24 28.63  2.5092 2.7903  95.9 20.1 .493   7
2024 11 14 12  11 03 47.580   +64 24 23.09  2.5086 2.7901  95.9 20.1 .499   7
2024 11 14 13  11 03 50.765   +64 24 17.57  2.5080 2.7899  96.0 20.1 .505   7
2024 11 14 14  11 03 53.945   +64 24 12.06  2.5074 2.7896  96.0 20.1 .511   7
2024 11 14 15  11 03 57.121   +64 24 06.57  2.5068 2.7894  96.0 20.1 .517   7
2024 11 14 16  11 04 00.293   +64 24 01.09  2.5063 2.7891  96.0 20.1 .523   7
2024 11 14 17  11 04 03.461   +64 23 55.62  2.5057 2.7889  96.0 20.1 .529   7
2024 11 14 18  11 04 06.624   +64 23 50.17  2.5051 2.7886  96.1 20.1 .536   7
2024 11 14 19  11 04 09.784   +64 23 44.73  2.5045 2.7884  96.1 20.1 .542   6
2024 11 14 20  11 04 12.938   +64 23 39.31  2.5039 2.7881  96.1 20.1 .548   6
2024 11 14 21  11 04 16.089   +64 23 33.90  2.5033 2.7879  96.1 20.1 .554   6
2024 11 14 22  11 04 19.235   +64 23 28.50  2.5027 2.7876  96.1 20.1 .561   6
2024 11 14 23  11 04 22.377   +64 23 23.12  2.5021 2.7874  96.2 20.1 .567   6
2024 11 15 00  11 04 25.515   +64 23 17.76  2.5015 2.7871  96.2 20.1 .573   6
2024 11 15 01  11 04 28.649   +64 23 12.40  2.5009 2.7869  96.2 20.1 .580   6
2024 11 15 02  11 04 31.778   +64 23 07.06  2.5003 2.7866  96.2 20.1 .586   6
2024 11 15 03  11 04 34.903   +64 23 01.74  2.4998 2.7864  96.2 20.1 .593   6
2024 11 15 04  11 04 38.024   +64 22 56.43  2.4992 2.7861  96.3 20.1 .599   6
2024 11 15 05  11 04 41.140   +64 22 51.13  2.4986 2.7859  96.3 20.0 .606   6
2024 11 15 06  11 04 44.252   +64 22 45.85  2.4980 2.7856  96.3 20.0 .612   6
2024 11 15 07  11 04 47.360   +64 22 40.58  2.4974 2.7854  96.3 20.0 .619   6
2024 11 15 08  11 04 50.463   +64 22 35.33  2.4968 2.7851  96.3 20.0 .625   5
2024 11 15 09  11 04 53.563   +64 22 30.09  2.4962 2.7849  96.4 20.0 .632   5
2024 11 15 10  11 04 56.658   +64 22 24.86  2.4956 2.7846  96.4 20.0 .639   5
2024 11 15 11  11 04 59.748   +64 22 19.65  2.4950 2.7844  96.4 20.0 .645   5
2024 11 15 12  11 05 02.834   +64 22 14.45  2.4944 2.7841  96.4 20.0 .652   5
2024 11 15 13  11 05 05.916   +64 22 09.27  2.4938 2.7839  96.4 20.0 .659   5
2024 11 15 14  11 05 08.994   +64 22 04.10  2.4933 2.7836  96.5 20.0 .666   5
2024 11 15 15  11 05 12.068   +64 21 58.95  2.4927 2.7834  96.5 20.0 .673   5
2024 11 15 16  11 05 15.137   +64 21 53.81  2.4921 2.7832  96.5 20.0 .679   5
2024 11 15 17  11 05 18.201   +64 21 48.68  2.4915 2.7829  96.5 20.0 .686   5
2024 11 15 18  11 05 21.262   +64 21 43.57  2.4909 2.7827  96.5 20.0 .693   5
2024 11 15 19  11 05 24.318   +64 21 38.48  2.4903 2.7824  96.6 20.0 .700   5
2024 11 15 20  11 05 27.370   +64 21 33.39  2.4897 2.7822  96.6 20.0 .707   5